Home   Weather   Lund   Past weeks

Flag for Sweden Past Weather in Lund, Sweden — Yesterday and Last 2 Weeks

Now
64 °F

Partly sunny.


Feels Like: 64 °F
Forecast: 56 / 62 °F
Wind: 25 mph from Southwest

Location: Malmo / Sturup

Current Time: Sep 29, 2016 at 3:41:19 PM

Latest Report: Sep 29, 2016 at 3:20 PM


Visibility: N/A

Pressure: 29.65 "Hg

Humidity: 78%

Dew Point: 57 °F

Location of LundLocation

Past Weather in Lund — Graph

°F

Lund Temperature Yesterday

Maximum temperature yesterday: 66 °F (at 12:50 PM)
Minimum temperature yesterday: 55 °F (at 12:20 AM)
Average temperature yesterday: 62 °F

High & Low Weather Summary for the Past Weeks

 TemperatureHumidityPressure
High77 °F (Sep 14, 2:50 PM)100% (Sep 15, 7:50 AM)30.27 "Hg (Sep 15, 7:50 AM)
Low39 °F (Sep 22, 4:20 AM)44% (Sep 14, 3:50 PM)29.68 "Hg (Sep 29, 1:50 PM)
Average58 °F79%30.12 "Hg
* Reported Sep 14 2:20 PM — Sep 29 2:20 PM, Lund, Weather by CustomWeather, © 2016

Note: Actual official high and low records may vary slightly from our data, if they occured in-between our weather recording intervals... More about our weather records

Advertising

Lund Weather History for the Previous 24 Hours

Scroll right to see more
 ConditionsComfort  
Time TempWeatherWind HumidityBarometerVisibility
2:20 PM
Thu, Sep 29
64 °FPartly sunny.25 mph78%29.68 "HgN/A
1:50 PM64 °FPartly sunny.23 mph78%29.68 "HgN/A
1:20 PM64 °FBroken clouds.22 mph83%29.71 "HgN/A
12:50 PM64 °FPartly sunny.23 mph83%29.71 "HgN/A
12:20 PM64 °FOvercast.23 mph83%29.71 "HgN/A
11:50 AM64 °FOvercast.23 mph83%29.71 "HgN/A
11:20 AM64 °FPartly sunny.20 mph83%29.74 "HgN/A
10:50 AM64 °FPartly sunny.18 mph83%29.74 "HgN/A
10:20 AM63 °FPartly sunny.20 mph88%29.74 "HgN/A
9:50 AM63 °FLow clouds.23 mph94%29.77 "HgN/A
9:20 AM63 °FFog.22 mph88%29.77 "Hg6 mi
8:50 AM63 °FFog.22 mph94%29.77 "Hg5 mi
8:20 AM63 °FFog.21 mph88%29.77 "Hg5 mi
7:50 AM61 °FFog.18 mph94%29.80 "Hg4 mi
7:20 AM61 °FFog.20 mph94%29.80 "Hg4 mi
6:50 AM63 °FFog.17 mph88%29.80 "Hg5 mi
6:20 AM63 °FLow clouds.14 mph88%29.83 "HgN/A
5:50 AM61 °FFog.12 mph94%29.83 "Hg6 mi
5:20 AM61 °FFog.12 mph88%29.86 "Hg5 mi
4:50 AM61 °FOvercast.12 mph88%29.86 "HgN/A
4:20 AM59 °FMostly cloudy.10 mph88%29.86 "HgN/A
3:50 AM59 °FOvercast.8 mph88%29.89 "HgN/A
3:20 AM59 °FOvercast.8 mph88%29.92 "HgN/A
2:50 AM59 °FOvercast.9 mph82%29.92 "HgN/A
2:20 AM59 °FLight rain. Mostly cloudy.10 mph82%29.92 "HgN/A
1:50 AM59 °FOvercast.12 mph82%29.92 "HgN/A
1:20 AM59 °FPartly cloudy.10 mph82%29.95 "HgN/A
12:50 AM59 °FPassing clouds.12 mph77%29.95 "HgN/A
12:20 AM59 °FPassing clouds.13 mph77%29.92 "HgN/A
11:50 PM
Wed, Sep 28
59 °FPassing clouds.15 mph77%29.92 "HgN/A
11:20 PM59 °FPassing clouds.14 mph77%29.92 "HgN/A
10:50 PM61 °FPassing clouds.17 mph72%29.92 "HgN/A
10:20 PM61 °FPassing clouds.16 mph72%29.92 "HgN/A
9:50 PM61 °FPassing clouds.16 mph72%29.92 "HgN/A
9:20 PM61 °FPassing clouds.16 mph72%29.92 "HgN/A
8:50 PM61 °FPartly cloudy.16 mph72%29.92 "HgN/A
8:20 PM61 °FPassing clouds.17 mph68%29.92 "HgN/A
7:50 PM61 °FPassing clouds.13 mph72%29.92 "HgN/A
7:20 PM61 °FPassing clouds.16 mph68%29.89 "HgN/A
6:50 PM61 °FPassing clouds.13 mph68%29.89 "HgN/A
6:20 PM61 °FPassing clouds.16 mph68%29.89 "HgN/A
5:50 PM63 °FSunny.16 mph64%29.89 "Hg10 mi
5:20 PM63 °FBroken clouds.18 mph64%29.89 "HgN/A
4:50 PM63 °FPartly sunny.18 mph64%29.89 "HgN/A
4:20 PM64 °FPassing clouds.18 mph64%29.89 "HgN/A
3:50 PM64 °FScattered clouds.18 mph60%29.89 "HgN/A
3:20 PM64 °FScattered clouds.21 mph60%29.89 "HgN/A
Weather by CustomWeather, © 2016

See weather overviewHow to use our weather pages